Location: *
(2.7500°S, 66.6833°W)
Time: 22:24:25
(UTC+00:00)

SWIFT - Pass Details

Date: 24 May 2024
Orbit: 503 x 514 km, 20.6° (Epoch: 13 June)

Event Time Altitude Azimuth Distance (km) Brightness Sun altitude
Rises 22:49:20 0° 304° (NW) 2,607 7.7 -7.0°
Reaches altitude 10° 22:51:41 10° 312° (NW) 1,723 6.2 -7.5°
Maximum altitude 22:55:25 39° 22° (NNE) 780 3.1 -8.4°
Enters shadow 22:59:04 11° 91° (E) 1,685 4.2 -9.2°
